Weather History for Stevensville, MD

Change the Weather History Date:

Wednesday, February 13, 2013

  Actual Average (KESN) Record (KESN)
Temperature  
Mean Temperature 40 °F -  
Max Temperature 46 °F 48 °F 70 °F (1951)
Min Temperature 33 °F 29 °F 7 °F (1967)
Degree Days  
Heating Degree Days 26    
Moisture  
Dew Point 31 °F    
Average Humidity 80    
Maximum Humidity 100    
Minimum Humidity 53    
Precipitation  
Precipitation 0.00 in - - ()
Sea Level Pressure  
Sea Level Pressure 29.81 in    
Wind  
Wind Speed 5 mph (NNE)    
Max Wind Speed 12 mph    
Max Gust Speed 17 mph    
Visibility 8 miles    
Events      
Averages and records for this station are not official NWS values.
T = Trace of Precipitation, MM = Missing Value Source: NWS Daily Summary

Daily Weather History Graph

Daily Weather History Graph

Search for Another Location

Airport:

Trip Planner

Search our weather history database for the weather conditions in past years. The results will help you decide how hot, cold, wet, or windy it might be!

Date:

Astronomy

Feb. 13, 2013 Rise Set
Actual Time 6:58 AM EST 5:40 PM EST
Civil Twilight 6:31 AM EST 6:08 PM EST
Nautical Twilight 6:00 AM EST 6:39 PM EST
Astronomical Twilight 5:29 AM EST 7:10 PM EST
Moon 8:29 AM EST (2/13) 9:38 PM EST (2/13)
Length of Visible Light 11h 36m
Length of Day
10h 41m
Waxing Crescent, 13% of the Moon is Illuminated
Feb 13
Waxing Crescent
Feb 17
First Quarter
Feb 25
Full
Mar 4
Last Quarter
Mar 11
New

Hourly Weather History & Observations

Time (EST) Temp. Windchill Dew Point Humidity Pressure Visibility Wind Dir Wind Speed Gust Speed Precip Events Conditions
12:05 AM 37.4 °F 34.9 °F 28.4 °F 70% 29.97 in 10.0 mi NNE 3.5 mph - N/A   Clear
12:25 AM 37.4 °F 34.9 °F 28.4 °F 70% 29.97 in 10.0 mi NNE 3.5 mph - N/A   Clear
12:45 AM 37.4 °F - 30.2 °F 75% 29.97 in 10.0 mi Calm Calm - N/A   Clear
1:05 AM 37.4 °F - 30.2 °F 75% 29.97 in 10.0 mi Calm Calm - N/A   Clear
1:25 AM 35.6 °F - 30.2 °F 81% 29.97 in 10.0 mi Calm Calm - N/A   Clear
1:45 AM 35.6 °F - 28.4 °F 75% 29.97 in 10.0 mi Calm Calm - N/A   Clear
2:05 AM 35.6 °F 32.8 °F 28.4 °F 75% 29.96 in 10.0 mi ENE 3.5 mph - N/A   Clear
2:25 AM 35.6 °F 31.7 °F 28.4 °F 75% 29.94 in 10.0 mi ENE 4.6 mph - N/A   Clear
2:45 AM 35.6 °F 32.8 °F 28.4 °F 75% 29.94 in 10.0 mi East 3.5 mph - N/A   Clear
3:05 AM 35.6 °F 31.7 °F 28.4 °F 75% 29.93 in 10.0 mi ENE 4.6 mph - N/A   Clear
3:25 AM 35.6 °F 30.7 °F 28.4 °F 75% 29.92 in 10.0 mi ENE 5.8 mph - N/A   Clear
3:45 AM 35.6 °F 31.7 °F 28.4 °F 75% 29.91 in 10.0 mi ENE 4.6 mph - N/A   Clear
4:05 AM 35.6 °F 31.7 °F 28.4 °F 75% 29.90 in 10.0 mi ENE 4.6 mph - N/A   Clear
4:26 AM 35.6 °F 29.9 °F 28.4 °F 75% 29.90 in 10.0 mi ENE 6.9 mph - N/A   Clear
4:46 AM 35.6 °F 29.2 °F 28.4 °F 75% 29.90 in 10.0 mi East 8.1 mph - N/A   Clear
5:06 AM 33.8 °F 28.6 °F 28.4 °F 81% 29.92 in 10.0 mi East 5.8 mph - N/A   Clear
5:26 AM 33.8 °F 28.6 °F 26.6 °F 75% 29.91 in 10.0 mi ENE 5.8 mph - N/A   Clear
5:46 AM 33.8 °F 29.6 °F 28.4 °F 81% 29.91 in 10.0 mi ENE 4.6 mph - N/A   Clear
6:06 AM 33.8 °F - 28.4 °F 81% 29.90 in 10.0 mi Calm Calm - N/A   Clear
6:26 AM 33.8 °F 28.6 °F 26.6 °F 75% 29.90 in 10.0 mi ENE 5.8 mph - N/A   Clear
6:46 AM 35.6 °F 31.7 °F 28.4 °F 75% 29.90 in 10.0 mi ENE 4.6 mph - N/A   Clear
7:06 AM 35.6 °F 29.9 °F 28.4 °F 75% 29.89 in 10.0 mi ENE 6.9 mph - N/A   Clear
7:26 AM 35.6 °F 30.7 °F 28.4 °F 75% 29.89 in 10.0 mi ENE 5.8 mph - N/A   Clear
7:46 AM 35.6 °F 30.7 °F 26.6 °F 70% 29.88 in 10.0 mi ENE 5.8 mph - N/A   Clear
8:26 AM 37.4 °F 33.8 °F 26.6 °F 65% 29.89 in 10.0 mi East 4.6 mph - N/A   Clear
8:46 AM 37.4 °F 33.8 °F 28.4 °F 70% 29.89 in 10.0 mi ENE 4.6 mph - N/A   Clear
9:06 AM 37.4 °F 33.8 °F 28.4 °F 70% 29.90 in 10.0 mi East 4.6 mph - N/A   Clear
9:26 AM 37.4 °F 32.8 °F 28.4 °F 70% 29.88 in 10.0 mi East 5.8 mph - N/A   Clear
9:46 AM 39.2 °F 32.5 °F 28.4 °F 65% 29.87 in 10.0 mi East 10.4 mph - N/A   Clear
10:06 AM 39.2 °F 35.0 °F 28.4 °F 65% 29.86 in 10.0 mi East 5.8 mph - N/A   Clear
10:26 AM 39.2 °F - 28.4 °F 65% 29.88 in 10.0 mi Calm Calm - N/A   Clear
11:06 AM 39.2 °F 35.0 °F 28.4 °F 65% 29.85 in 10.0 mi ENE 5.8 mph - N/A   Clear
11:26 AM 42.8 °F 39.3 °F 30.2 °F 61% 29.84 in 10.0 mi East 5.8 mph - N/A   Clear
11:46 AM 44.6 °F 41.4 °F 30.2 °F 57% 29.83 in 10.0 mi NE 5.8 mph - N/A   Clear
12:06 PM - - - N/A% - - North - - N/A   Unknown
12:26 PM - - - N/A% - - North - - N/A   Unknown
12:47 PM 46.4 °F 44.3 °F 30.2 °F 53% 29.77 in - ENE 4.6 mph - N/A   Clear
1:07 PM 46.4 °F 42.9 °F 33.8 °F 62% 29.76 in - WNW 6.9 mph - N/A   Clear
1:27 PM 42.8 °F 38.0 °F 32.0 °F 66% 29.75 in 10.0 mi NNW 8.1 mph - N/A   Clear
1:47 PM 41.0 °F 35.8 °F 32.0 °F 70% 29.74 in 10.0 mi NNW 8.1 mph - N/A   Clear
2:07 PM 39.2 °F 33.0 °F 32.0 °F 75% 29.72 in 10.0 mi NNW 9.2 mph - N/A   Clear
2:27 PM 39.2 °F 33.6 °F 32.0 °F 75% 29.72 in 10.0 mi NNW 8.1 mph - N/A   Clear
2:47 PM 39.2 °F 33.6 °F 32.0 °F 75% 29.70 in 10.0 mi North 8.1 mph - N/A   Clear
3:07 PM 39.2 °F 33.6 °F 32.0 °F 75% 29.69 in 10.0 mi North 8.1 mph - N/A   Mostly Cloudy
3:27 PM 39.2 °F 33.0 °F 32.0 °F 75% 29.68 in 10.0 mi North 9.2 mph - N/A   Overcast
3:47 PM 39.2 °F 34.2 °F 33.8 °F 81% 29.67 in 10.0 mi North 6.9 mph - N/A   Overcast
4:07 PM 41.0 °F 39.0 °F 33.8 °F 76% 29.66 in 10.0 mi North 3.5 mph - N/A   Mostly Cloudy
4:27 PM 41.0 °F 39.0 °F 35.6 °F 81% 29.67 in 10.0 mi NNW 3.5 mph - N/A   Mostly Cloudy
4:47 PM 42.8 °F 39.3 °F 35.6 °F 76% 29.67 in 7.0 mi East 5.8 mph - N/A   Overcast
5:07 PM 41.0 °F 38.0 °F 35.6 °F 81% 29.67 in 7.0 mi ENE 4.6 mph - N/A   Overcast
5:27 PM 41.0 °F 39.0 °F 35.6 °F 81% 29.67 in 5.0 mi NE 3.5 mph - N/A   Overcast
5:47 PM 39.2 °F 37.0 °F 35.6 °F 87% 29.68 in 5.0 mi NNE 3.5 mph - N/A   Overcast
6:07 PM 37.4 °F 33.8 °F 35.6 °F 93% 29.68 in 3.0 mi NE 4.6 mph - N/A   Overcast
6:27 PM 37.4 °F 33.8 °F 37.4 °F 100% 29.67 in 4.0 mi NNE 4.6 mph - N/A   Overcast
6:47 PM 37.4 °F 31.4 °F 35.6 °F 93% 29.68 in 5.0 mi North 8.1 mph - N/A   Overcast
7:07 PM 35.6 °F 30.7 °F 35.6 °F 100% 29.68 in 5.0 mi North 5.8 mph - N/A   Overcast
7:27 PM 35.6 °F 29.9 °F 35.6 °F 100% 29.68 in 3.0 mi North 6.9 mph - N/A   Overcast
7:47 PM 35.6 °F 28.6 °F 35.6 °F 100% 29.69 in 4.0 mi North 9.2 mph - N/A   Overcast
8:07 PM 33.8 °F 27.0 °F 33.8 °F 100% 29.70 in 3.0 mi North 8.1 mph - N/A   Overcast
8:27 PM 33.8 °F 25.3 °F 33.8 °F 100% 29.69 in 3.0 mi North 11.5 mph - N/A   Overcast
8:47 PM 33.8 °F 25.3 °F 33.8 °F 100% 29.70 in 2.5 mi North 11.5 mph - N/A   Overcast
9:08 PM 33.8 °F 25.3 °F 33.8 °F 100% 29.71 in 3.0 mi North 11.5 mph 16.1 mph N/A   Overcast
9:28 PM 33.8 °F 27.0 °F 33.8 °F 100% 29.71 in 3.0 mi North 8.1 mph 17.3 mph N/A   Overcast
9:48 PM 33.8 °F 25.3 °F 33.8 °F 100% 29.71 in 2.5 mi North 11.5 mph - N/A   Overcast
10:08 PM 33.8 °F 26.4 °F 33.8 °F 100% 29.72 in 2.5 mi NNW 9.2 mph - N/A   Overcast
10:28 PM 33.8 °F 25.8 °F 33.8 °F 100% 29.73 in 3.0 mi NW 10.4 mph 17.3 mph N/A   Overcast
11:08 PM 33.8 °F 26.4 °F 33.8 °F 100% 29.75 in 2.5 mi NW 9.2 mph - N/A   Overcast
11:28 PM 33.8 °F 27.0 °F 33.8 °F 100% 29.75 in 3.0 mi NNW 8.1 mph - N/A   Overcast
11:48 PM 33.8 °F 27.0 °F 33.8 °F 100% 29.75 in 4.0 mi NNW 8.1 mph - N/A   Overcast